STARLINK-37264, 68729

Orbit data source: Space-Track

STARLINK-37264, 68729 is a payload satellite owned by SpaceX/Seattle (US) in SSO that was launched on Wed, 15 Apr 2026 UTC via an FALCON 9 launch vehicle from the Air Force Western Test Range (AFWTR). Payload-class satellites include a variety of spacecraft equipped with specific instruments for various scientific and technological missions. These include communications satellites like Starlink; space stations such as the ISS; scientific satellites like the Hubble; Earth observation satellites from companies like Planet Labs, Umbra, and HawkEye 360; GPS; miniature CubeSats for education and research; and military/defense satellites.

Loading next visibility...
Identifier
68729, 2026-082B
Orbit
SSO
Country
Flag of USUS
Related business
Manufacturer
SpaceX/Seattle
Mission
Operational spacecraft
Bus & Motor
STARLINK V2MO, Unknown motor
Mass
575 kg wet, ~530 kg dry
Launch date (UTC)
2026-04-15 (2 months ago)
Launch vehicle
FALCON 9
Launch site
Air Force Western Test Range (AFWTR)
Object type
Payload
Rocket body
Debris
Shape & HBR
Unknown shape, 14.5 m
Radar Cross Section
Large (>1 m²)

Expand to show TLE details & history
Last TLE update: 13 hours ago

TLE from 13 hours ago
0 STARLINK-37264
1 68729U 26082B   26171.37026036  .00022812  00000-0  70662-3 0  9993
2 68729  97.2864  34.7820 0001387  97.4097 262.7304 15.33452402 10182
Epoch: 2026-06-20T08:53Z
TLE epoch observation values (Epoch: 2026-06-20T08:53:10.495Z)
Latitude
0.00006°
Longitude
-7.09759°
Altitude
468.753 km
Speed
7.632 km/s
True Right ascension
02h 19m 07s
True Declination
0° 00' 00"
Sunlit
Object was in daylight at epoch
Visualization orbit readout
Latitude
Unknown
Longitude
Unknown
Altitude
Unknown
Speed
Unknown
Apparent Right ascension
Unknown
Apparent Declination
Unknown
Sunlit
N/A
Visualization observer readout
Local Sidereal Time
08:33:21
Azimuth
Unknown
Elevation
Unknown
Doppler factor
Unknown
Orbital elements
Apogee altitude
463.413 km
Perigee altitude
461.515 km
Semi-major axis
6,840.601 km
Eccentricity
0.00014
Inclination
97.2864°
RAAN
34.782°
Arg. of periapsis
97.4097°
True anomaly
262.71463°
Mean anomaly
262.7304°
Eccentric anomaly
262.72252°
Mean motion
3.8362 °/min
Orbital period
93.84 mins
BSTAR
0.00070662
Loading maneuver chart data...
Computing Atmospheric mass density...
Loading historical data...
Loading historical data...
Loading historical data...
Loading historical data...
Loading historical data...
Loading historical data...
Loading historical data...

Documentation

Showing up to 5 results
|